Date String (YYYY-MM-DD hh:mm:ss) UTC,Instrument flags,Ambient pressure (hPa),Sample flow (lpm),Bypass flow (lpm),Sample temperature (°C),Ambient temperature (°C),ASC tube jacket temperature (°C),LED temperature (°C),Box temperature (°C),Sample RH (%),Span deviation,Mass concentration (μg/m³),Mass concentration (μg/m³),Mass concentration (μg/m³)
DateTimeUTC,F1_M11,P_M11,Q1_M11,Q2_M11,T1_M11,T2_M11,T3_M11,T4_M11,T5_M11,U1_M11,ZSPAN_M11,X0_M11,X2_M11,X1_M11
2021-11-10 18:00:00,,0823.9,5.00,0.00,26.9,25.7,00.0,35.9,28.5,08.7,0000.0,0007.37,0002.20,0001.46
2021-11-10 18:01:00,,0823.8,4.99,0.00,26.8,25.7,00.0,35.9,28.5,08.4,0000.0,0007.34,0002.19,0001.48
2021-11-10 18:02:00,,0823.7,5.01,0.00,26.8,25.7,00.0,35.9,28.5,08.0,0000.0,0007.21,0002.24,0001.52
2021-11-10 18:03:00,,0823.7,5.00,0.00,26.8,25.8,00.0,35.9,28.5,07.8,0000.0,0007.54,0002.33,0001.55
2021-11-10 18:04:00,,0823.8,5.00,0.00,26.8,25.8,00.0,35.9,28.5,08.1,0000.0,0007.86,0002.42,0001.57
2021-11-10 18:05:00,,0823.9,4.99,0.00,26.8,25.7,00.0,35.9,28.5,08.3,0000.0,0007.84,0002.40,0001.58
2021-11-10 18:06:00,,0824.0,4.99,0.00,26.8,25.7,00.0,35.9,28.5,08.8,0000.0,0007.61,0002.42,0001.60
2021-11-10 18:07:00,,0824.0,5.01,0.00,26.8,25.6,00.0,35.9,28.5,09.0,0000.0,0007.12,0002.46,0001.59
2021-11-10 18:08:00,,0823.9,5.00,0.00,26.8,25.6,00.0,35.9,28.5,09.3,0000.0,0008.03,0002.44,0001.58
2021-11-10 18:09:00,,0823.9,5.00,0.00,26.8,25.6,00.0,35.9,28.5,09.5,0000.0,0008.04,0002.39,0001.58
2021-11-10 18:10:00,,0823.9,5.01,0.00,26.8,25.7,00.0,35.9,28.5,09.3,0000.0,0007.42,0002.36,0001.57
2021-11-10 18:11:00,,0823.9,5.01,0.00,26.8,25.6,00.0,35.9,28.5,09.6,0000.0,0007.38,0002.34,0001.55
2021-11-10 18:12:00,,0823.8,4.99,0.00,26.8,25.7,00.0,35.9,28.5,09.5,0000.0,0007.87,0002.36,0001.54
2021-11-10 18:13:00,,0823.8,5.00,0.00,26.8,25.7,00.0,35.9,28.5,09.9,0000.0,0007.92,0002.33,0001.52
2021-11-10 18:14:00,,0823.9,5.00,0.00,26.8,25.7,00.0,35.9,28.4,09.9,0000.0,0008.41,0002.33,0001.51
2021-11-10 18:15:00,,0824.0,5.00,0.00,26.8,25.6,00.0,35.9,28.4,10.0,0000.0,0008.51,0002.30,0001.49
2021-11-10 18:16:00,,0823.8,5.00,0.00,26.8,25.6,00.0,35.9,28.4,10.2,0000.0,0009.52,0002.29,0001.49
2021-11-10 18:17:00,,0823.7,5.00,0.00,26.8,25.6,00.0,35.9,28.5,10.1,0000.0,0010.42,0002.26,0001.49
2021-11-10 18:18:00,,0823.7,5.00,0.00,26.8,25.6,00.0,35.9,28.4,10.2,0000.0,0011.19,0002.29,0001.49
2021-11-10 18:19:00,,0823.7,5.01,0.00,26.8,25.6,00.0,35.9,28.5,10.4,0000.0,0010.41,0002.35,0001.50
2021-11-10 18:20:00,,0823.7,5.00,0.00,26.8,25.6,00.0,35.9,28.4,10.3,0000.0,0010.22,0002.44,0001.52
2021-11-10 18:21:00,,0823.7,4.98,0.00,26.8,25.6,00.0,35.9,28.4,10.4,0000.0,0010.42,0002.56,0001.54
2021-11-10 18:22:00,,0823.6,5.01,0.00,26.8,25.5,00.0,35.9,28.4,10.4,0000.0,0010.57,0002.65,0001.57
2021-11-10 18:23:00,,0823.6,5.00,0.00,26.8,25.5,00.0,35.9,28.4,10.2,0000.0,0010.92,0002.70,0001.59
2021-11-10 18:24:00,,0823.6,5.00,0.00,26.8,25.5,00.0,35.9,28.4,09.9,0000.0,0010.78,0002.68,0001.61
2021-11-10 18:25:00,,0823.5,5.00,0.00,26.7,25.5,00.0,35.9,28.4,09.9,0000.0,0010.64,0002.63,0001.61
2021-11-10 18:26:00,,0823.5,5.01,0.00,26.7,25.6,00.0,35.9,28.4,09.5,0000.0,0010.42,0002.60,0001.61
2021-11-10 18:27:00,,0823.6,5.01,0.00,26.7,25.5,00.0,35.9,28.4,09.4,0000.0,0009.44,0002.59,0001.65
2021-11-10 18:28:00,,0823.4,5.00,0.00,26.7,25.5,00.0,35.8,28.3,09.5,0000.0,0008.74,0002.65,0001.67
2021-11-10 18:29:00,,0823.5,5.00,0.00,26.7,25.5,00.0,35.8,28.3,09.2,0000.0,0008.08,0002.66,0001.70
2021-11-10 18:30:00,,0823.4,5.00,0.00,26.7,25.5,00.0,35.8,28.3,08.9,0000.0,0008.05,0002.69,0001.72
2021-11-10 18:31:00,,0823.4,4.99,0.00,26.7,25.5,00.0,35.8,28.3,08.7,0000.0,0008.12,0002.76,0001.77
2021-11-10 18:32:00,,0823.4,5.00,0.00,26.7,25.5,00.0,35.8,28.3,08.4,0000.0,0008.31,0002.88,0001.84
2021-11-10 18:33:00,,0823.4,5.01,0.00,26.7,25.5,00.0,35.8,28.4,08.4,0000.0,0008.44,0002.96,0001.91
2021-11-10 18:34:00,,0823.4,5.00,0.00,26.7,25.5,00.0,35.8,28.4,09.2,0000.0,0008.60,0003.02,0001.95
2021-11-10 18:35:00,,0823.5,4.98,0.00,26.7,25.5,00.0,35.8,28.3,09.1,0000.0,0008.23,0003.09,0002.00
2021-11-10 18:36:00,,0823.4,5.00,0.00,26.7,25.5,00.0,35.8,28.3,08.7,0000.0,0007.81,0003.15,0002.06
2021-11-10 18:37:00,,0823.3,5.00,0.00,26.7,25.5,00.0,35.8,28.3,08.4,0000.0,0007.87,0003.19,0002.12
2021-11-10 18:38:00,,0823.3,4.97,0.00,26.7,25.6,00.0,35.8,28.4,08.2,0000.0,0008.00,0003.24,0002.15
2021-11-10 18:39:00,,0823.3,5.01,0.00,26.7,25.6,00.0,35.8,28.4,08.2,0000.0,0008.41,0003.33,0002.21
2021-11-10 18:40:00,,0823.4,4.99,0.00,26.7,25.6,00.0,35.8,28.3,07.8,0000.0,0008.69,0003.43,0002.28
2021-11-10 18:41:00,,0823.3,4.99,0.00,26.6,25.6,00.0,35.8,28.3,07.6,0000.0,0009.64,0003.55,0002.34
2021-11-10 18:42:00,,0823.3,5.00,0.00,26.6,25.7,00.0,35.8,28.3,07.7,0000.0,0009.71,0003.60,0002.38
2021-11-10 18:43:00,,0823.5,5.00,0.00,26.6,25.6,00.0,35.8,28.3,08.2,0000.0,0009.91,0003.58,0002.38
2021-11-10 18:44:00,,0823.4,5.00,0.00,26.6,25.6,00.0,35.8,28.2,08.0,0000.0,0010.02,0003.56,0002.38
2021-11-10 18:45:00,,0823.3,5.00,0.00,26.6,25.5,00.0,35.8,28.3,07.9,0000.0,0009.49,0003.57,0002.42
2021-11-10 18:46:00,,0823.5,4.99,0.00,26.6,25.5,00.0,35.8,28.3,08.5,0000.0,0009.80,0003.62,0002.46
2021-11-10 18:47:00,,0823.6,5.00,0.00,26.6,25.5,00.0,35.8,28.3,09.0,0000.0,0009.78,0003.61,0002.47
2021-11-10 18:48:00,,0823.6,5.00,0.00,26.6,25.5,00.0,35.8,28.3,09.3,0000.0,0009.60,0003.58,0002.48
2021-11-10 18:49:00,,0823.5,5.00,0.00,26.6,25.4,00.0,35.7,28.3,09.2,0000.0,0009.61,0003.55,0002.48
2021-11-10 18:50:00,,0823.5,5.01,0.00,26.6,25.5,00.0,35.7,28.3,09.0,0000.0,0009.40,0003.52,0002.47
2021-11-10 18:51:00,,0823.6,4.99,0.00,26.6,25.5,00.0,35.7,28.3,09.0,0000.0,0009.06,0003.43,0002.47
2021-11-10 18:52:00,,0823.5,5.01,0.00,26.6,25.5,00.0,35.7,28.3,09.0,0000.0,0007.78,0003.34,0002.46
2021-11-10 18:53:00,,0823.4,5.00,0.00,26.6,25.5,00.0,35.7,28.3,09.0,0000.0,0007.53,0003.28,0002.45
2021-11-10 18:54:00,,0823.4,5.01,0.00,26.6,25.5,00.0,35.7,28.3,08.8,0000.0,0007.50,0003.23,0002.44
2021-11-10 18:55:00,,0823.4,4.99,0.00,26.6,25.5,00.0,35.7,28.3,08.7,0000.0,0008.04,0003.24,0002.46
2021-11-10 18:56:00,,0823.4,4.99,0.00,26.6,25.6,00.0,35.7,28.3,08.8,0000.0,0008.02,0003.23,0002.47
2021-11-10 18:57:00,,0823.4,5.01,0.00,26.6,25.6,00.0,35.7,28.3,08.9,0000.0,0007.83,0003.23,0002.46
2021-11-10 18:58:00,,0823.3,5.00,0.00,26.6,25.6,00.0,35.7,28.3,09.0,0000.0,0007.58,0003.21,0002.47
2021-11-10 18:59:00,,0823.4,5.01,0.00,26.5,25.6,00.0,35.7,28.3,08.8,0000.0,0007.68,0003.25,0002.50
